date,City,No. Stations,Air Quality,Index Value,Prominent Pollutant
2021-07-18,Darbhanga,1.0,Satisfactory,85,PM10
2021-07-19,Darbhanga,1.0,Moderate,113,PM10
2021-07-20,Darbhanga,1.0,Good,42,PM2.5
2021-07-21,Darbhanga,1.0,Moderate,111,PM10
2021-07-22,Darbhanga,1.0,Satisfactory,96,PM10
2021-07-23,Darbhanga,1.0,Good,29,PM2.5
2021-07-24,Darbhanga,1.0,Satisfactory,79,PM10
2021-07-25,Darbhanga,1.0,Satisfactory,75,PM10
2021-07-26,Darbhanga,1.0,Moderate,143,PM10
2021-07-27,Darbhanga,1.0,Moderate,130,PM10
2021-07-28,Darbhanga,1.0,Good,38,PM2.5
2021-07-29,Darbhanga,1.0,Good,22,CO
2021-07-30,Darbhanga,1.0,Good,17,CO
2021-07-31,Darbhanga,1.0,Good,27,CO
2021-08-01,Darbhanga,1.0,Good,27,PM2.5
2021-08-02,Darbhanga,1.0,Satisfactory,61,CO
2021-08-03,Darbhanga,1.0,Poor,293,PM10
2021-08-07,Darbhanga,1.0,Moderate,119,PM10
2021-08-09,Darbhanga,1.0,Satisfactory,93,PM10
2021-08-10,Darbhanga,1.0,Moderate,178,PM10
2021-11-13,Darbhanga,1.0,Poor,252,PM2.5
2021-11-14,Darbhanga,1.0,Poor,271,PM2.5
2021-11-17,Darbhanga,1.0,Poor,235,PM10
2021-11-18,Darbhanga,1.0,Very Poor,302,PM2.5
2021-11-20,Darbhanga,1.0,Very Poor,366,PM2.5
2021-11-21,Darbhanga,1.0,Very Poor,390,PM2.5
2021-11-22,Darbhanga,1.0,Very Poor,379,PM2.5
2021-11-23,Darbhanga,1.0,Very Poor,369,PM2.5
2021-11-24,Darbhanga,1.0,Very Poor,377,PM2.5
2021-11-25,Darbhanga,1.0,Very Poor,366,PM2.5
2021-11-26,Darbhanga,1.0,Very Poor,351,PM2.5
2021-11-27,Darbhanga,1.0,Very Poor,332,PM2.5
2021-11-28,Darbhanga,1.0,Very Poor,331,PM2.5
2021-11-29,Darbhanga,1.0,Very Poor,356,PM2.5
2021-11-30,Darbhanga,1.0,Very Poor,390,PM2.5
2021-12-01,Darbhanga,1.0,Very Poor,326,PM2.5
2021-12-02,Darbhanga,1.0,Very Poor,308,PM2.5
2021-12-03,Darbhanga,1.0,Very Poor,328,PM2.5
2021-12-04,Darbhanga,1.0,Very Poor,351,PM2.5
2021-12-05,Darbhanga,1.0,Very Poor,304,PM2.5
2021-12-06,Darbhanga,1.0,Poor,215,PM2.5
2021-12-07,Darbhanga,1.0,Poor,298,PM2.5
2021-12-08,Darbhanga,1.0,Very Poor,323,PM2.5
2021-12-09,Darbhanga,1.0,Poor,262,PM2.5
2021-12-10,Darbhanga,1.0,Very Poor,310,PM2.5
2021-12-11,Darbhanga,1.0,Very Poor,324,PM2.5
2021-12-12,Darbhanga,1.0,Very Poor,338,PM2.5
2021-12-13,Darbhanga,1.0,Very Poor,376,PM2.5
2021-12-14,Darbhanga,1.0,Very Poor,386,PM2.5
2021-12-15,Darbhanga,1.0,Very Poor,372,PM2.5
2021-12-16,Darbhanga,1.0,Very Poor,335,PM2.5
2021-12-17,Darbhanga,1.0,Very Poor,350,PM2.5
2021-12-18,Darbhanga,1.0,Very Poor,391,PM2.5
2021-12-19,Darbhanga,1.0,Very Poor,313,PM2.5
2021-12-20,Darbhanga,1.0,Very Poor,380,PM2.5
2021-12-21,Darbhanga,1.0,Severe,424,PM2.5
2021-12-22,Darbhanga,1.0,Very Poor,389,PM2.5
2021-12-23,Darbhanga,1.0,Severe,413,PM2.5
2021-12-24,Darbhanga,1.0,Very Poor,392,PM2.5
2021-12-25,Darbhanga,1.0,Poor,263,PM2.5
2021-12-26,Darbhanga,1.0,Poor,238,PM2.5
2021-12-27,Darbhanga,1.0,Poor,275,PM2.5
2021-12-28,Darbhanga,1.0,Poor,257,PM2.5
2021-12-29,Darbhanga,1.0,Moderate,113,PM2.5
2021-12-30,Darbhanga,1.0,Satisfactory,69,PM10
2021-12-31,Darbhanga,1.0,Moderate,157,PM2.5
2022-01-01,Darbhanga,1.0,Poor,261,PM2.5
2022-01-02,Darbhanga,1.0,Poor,203,PM2.5
2022-01-03,Darbhanga,1.0,Poor,296,PM2.5
2022-01-04,Darbhanga,1.0,Very Poor,330,PM2.5
2022-01-05,Darbhanga,1.0,Very Poor,326,PM2.5
2022-01-06,Darbhanga,1.0,Very Poor,364,PM2.5
2022-01-07,Darbhanga,1.0,Very Poor,317,PM2.5
2022-01-08,Darbhanga,1.0,Moderate,199,PM2.5
2022-01-09,Darbhanga,1.0,Moderate,194,PM2.5
2022-01-10,Darbhanga,1.0,Poor,290,PM2.5
2022-01-11,Darbhanga,1.0,Very Poor,308,PM2.5
2022-01-12,Darbhanga,1.0,Poor,277,PM2.5
2022-01-13,Darbhanga,1.0,Moderate,120,PM2.5
2022-01-14,Darbhanga,1.0,Poor,260,PM2.5
2022-01-15,Darbhanga,1.0,Moderate,199,PM10
2022-01-16,Darbhanga,1.0,Poor,251,PM2.5
2022-01-17,Darbhanga,1.0,Poor,273,PM2.5
2022-01-18,Darbhanga,1.0,Poor,288,PM2.5
2022-01-19,Darbhanga,1.0,Poor,288,PM2.5
2022-01-20,Darbhanga,1.0,Poor,288,PM2.5
2022-01-21,Darbhanga,1.0,Very Poor,334,PM2.5
2022-01-22,Darbhanga,1.0,Very Poor,347,PM2.5
2022-01-23,Darbhanga,1.0,Very Poor,323,PM2.5
2022-01-24,Darbhanga,1.0,Poor,209,PM2.5
2022-01-25,Darbhanga,1.0,Poor,290,PM2.5
2022-01-26,Darbhanga,1.0,Moderate,190,PM2.5
2022-01-27,Darbhanga,1.0,Poor,208,PM2.5
2022-01-28,Darbhanga,1.0,Poor,261,PM2.5
2022-01-29,Darbhanga,1.0,Very Poor,307,PM2.5
2022-01-30,Darbhanga,1.0,Very Poor,361,PM2.5
2022-01-31,Darbhanga,1.0,Very Poor,363,PM2.5
2022-02-02,Darbhanga,1.0,Very Poor,324,PM2.5
2022-02-03,Darbhanga,1.0,Poor,290,PM2.5
2022-02-05,Darbhanga,1.0,Satisfactory,62,CO
2022-02-06,Darbhanga,1.0,Moderate,134,PM2.5
2022-02-07,Darbhanga,1.0,Poor,219,PM2.5
2022-02-08,Darbhanga,1.0,Poor,243,PM2.5
2022-02-09,Darbhanga,1.0,Poor,292,PM2.5
2022-02-10,Darbhanga,1.0,Poor,274,PM2.5
2022-02-11,Darbhanga,1.0,Moderate,169,PM2.5
2022-02-12,Darbhanga,1.0,Moderate,165,PM2.5
2022-02-13,Darbhanga,1.0,Poor,237,PM2.5
2022-02-14,Darbhanga,1.0,Poor,236,PM2.5
2022-02-15,Darbhanga,1.0,Poor,236,PM2.5
2022-02-16,Darbhanga,1.0,Poor,248,PM2.5
2022-02-17,Darbhanga,1.0,Poor,244,PM2.5
2022-02-18,Darbhanga,1.0,Moderate,197,PM2.5
2022-02-19,Darbhanga,1.0,Moderate,199,PM2.5
2022-02-20,Darbhanga,1.0,Moderate,161,O3
2022-02-21,Darbhanga,1.0,Moderate,164,PM10
2022-02-22,Darbhanga,1.0,Moderate,194,PM10
2022-02-23,Darbhanga,1.0,Moderate,158,PM10
2022-02-25,Darbhanga,1.0,Moderate,165,PM10
2022-02-26,Darbhanga,1.0,Moderate,151,PM2.5
2022-02-27,Darbhanga,1.0,Moderate,200,PM2.5
2022-02-28,Darbhanga,1.0,Poor,230,PM2.5
2022-03-01,Darbhanga,1.0,Moderate,130,PM10
2022-03-02,Darbhanga,1.0,Moderate,159,PM10
2022-03-03,Darbhanga,1.0,Moderate,182,PM2.5
2022-03-04,Darbhanga,1.0,Poor,202,PM2.5
2022-03-05,Darbhanga,1.0,Moderate,164,PM10
2022-03-06,Darbhanga,1.0,Moderate,146,PM10
2022-03-07,Darbhanga,1.0,Poor,203,PM2.5
2022-03-08,Darbhanga,1.0,Moderate,191,PM2.5
2022-03-09,Darbhanga,1.0,Moderate,161,PM2.5
2022-03-10,Darbhanga,1.0,Moderate,196,PM2.5
2022-03-11,Darbhanga,1.0,Moderate,177,PM2.5
2022-03-12,Darbhanga,1.0,Moderate,184,PM2.5
2022-03-13,Darbhanga,1.0,Moderate,182,PM2.5
2022-03-14,Darbhanga,1.0,Moderate,193,PM2.5
2022-03-15,Darbhanga,1.0,Moderate,200,PM2.5
2022-03-16,Darbhanga,1.0,Poor,223,PM10
2022-03-17,Darbhanga,1.0,Poor,224,PM10
2022-03-18,Darbhanga,1.0,Poor,264,PM2.5
2022-03-20,Darbhanga,1.0,Poor,218,PM2.5
2022-03-21,Darbhanga,1.0,Poor,224,PM2.5
2022-03-22,Darbhanga,1.0,Moderate,193,PM10
2022-03-23,Darbhanga,1.0,Poor,217,PM10
2022-03-24,Darbhanga,1.0,Poor,215,PM10
2022-03-25,Darbhanga,1.0,Poor,223,PM10
2022-03-26,Darbhanga,1.0,Poor,210,PM10
2022-03-27,Darbhanga,1.0,Poor,222,PM10
2022-03-28,Darbhanga,1.0,Poor,277,PM10
2022-03-29,Darbhanga,1.0,Moderate,196,PM10
2022-03-30,Darbhanga,1.0,Moderate,158,PM10
2022-04-01,Darbhanga,1.0,Moderate,163,PM10
2022-04-02,Darbhanga,1.0,Moderate,170,PM10
2022-04-03,Darbhanga,1.0,Moderate,144,PM10
2022-04-04,Darbhanga,1.0,Moderate,174,PM10
2022-04-05,Darbhanga,1.0,Poor,204,PM10
2022-04-06,Darbhanga,1.0,Poor,224,PM10
2022-04-07,Darbhanga,1.0,Moderate,174,PM10
2022-04-08,Darbhanga,1.0,Moderate,130,PM10
2022-04-09,Darbhanga,1.0,Moderate,176,PM10
2022-04-10,Darbhanga,1.0,Moderate,155,PM10
2022-04-12,Darbhanga,1.0,Moderate,161,PM10
2022-04-14,Darbhanga,1.0,Moderate,182,PM10
2022-04-15,Darbhanga,1.0,Very Poor,335,PM10
2022-04-16,Darbhanga,1.0,Very Poor,301,PM10
2022-04-17,Darbhanga,1.0,Poor,265,PM10
2022-04-18,Darbhanga,1.0,Poor,243,PM10
2022-04-19,Darbhanga,1.0,Moderate,168,PM10
2022-04-20,Darbhanga,1.0,Moderate,121,PM10
2022-04-21,Darbhanga,1.0,Moderate,113,PM10
2022-04-22,Darbhanga,1.0,Moderate,139,PM10
2022-04-24,Darbhanga,1.0,Poor,270,PM10
2022-04-25,Darbhanga,1.0,Very Poor,362,PM10
2022-04-26,Darbhanga,1.0,Poor,286,PM10
2022-04-27,Darbhanga,1.0,Poor,208,PM10
2022-04-28,Darbhanga,1.0,Poor,211,PM10
2022-05-04,Darbhanga,1.0,Moderate,102,PM10
2022-05-05,Darbhanga,1.0,Satisfactory,98,PM10
2022-05-06,Darbhanga,1.0,Satisfactory,87,PM10
2022-05-11,Darbhanga,1.0,Moderate,121,PM10
2022-05-12,Darbhanga,1.0,Moderate,127,PM10
2022-05-13,Darbhanga,1.0,Moderate,124,PM10
2022-05-14,Darbhanga,1.0,Satisfactory,76,PM10
2022-05-15,Darbhanga,1.0,Satisfactory,92,PM10
2022-05-16,Darbhanga,1.0,Moderate,121,PM10
2022-05-18,Darbhanga,1.0,Moderate,134,PM10
2022-05-19,Darbhanga,1.0,Moderate,164,PM10
2022-05-20,Darbhanga,1.0,Satisfactory,89,PM10
2022-05-21,Darbhanga,1.0,Moderate,107,PM10
2022-05-22,Darbhanga,1.0,Satisfactory,71,PM10
2022-05-23,Darbhanga,1.0,Satisfactory,99,PM10
2022-05-25,Darbhanga,1.0,Moderate,121,PM10
2022-05-26,Darbhanga,1.0,Moderate,128,PM10
2022-05-27,Darbhanga,1.0,Moderate,199,PM10
2022-05-28,Darbhanga,1.0,Moderate,168,PM10
2022-05-29,Darbhanga,1.0,Moderate,126,PM10
2022-05-30,Darbhanga,1.0,Moderate,121,PM10
2022-05-31,Darbhanga,1.0,Moderate,137,PM10
2022-06-01,Darbhanga,1.0,Moderate,169,PM10
2022-06-02,Darbhanga,1.0,Moderate,148,PM10
2022-06-03,Darbhanga,1.0,Moderate,145,PM10
2022-06-04,Darbhanga,1.0,Moderate,135,PM10
2022-06-05,Darbhanga,1.0,Moderate,130,PM10
2022-06-06,Darbhanga,1.0,Moderate,110,PM10
2022-06-07,Darbhanga,1.0,Moderate,110,PM10
2022-06-09,Darbhanga,1.0,Satisfactory,60,PM2.5
2022-06-10,Darbhanga,1.0,Satisfactory,51,PM2.5
2022-06-11,Darbhanga,1.0,Satisfactory,71,PM2.5
2022-06-12,Darbhanga,1.0,Satisfactory,69,PM2.5
2022-06-13,Darbhanga,1.0,Satisfactory,61,O3
2022-06-14,Darbhanga,1.0,Moderate,121,PM10
2022-06-15,Darbhanga,1.0,Moderate,121,PM10
2022-06-16,Darbhanga,1.0,Moderate,106,PM10
2022-06-17,Darbhanga,1.0,Moderate,126,PM10
2022-06-22,Darbhanga,1.0,Satisfactory,89,PM10
2022-06-23,Darbhanga,1.0,Moderate,121,PM10
2022-06-24,Darbhanga,1.0,Moderate,128,PM10
2022-06-25,Darbhanga,1.0,Moderate,102,PM10
2022-06-26,Darbhanga,1.0,Satisfactory,96,PM10
2022-06-27,Darbhanga,1.0,Satisfactory,97,PM10
2022-06-28,Darbhanga,1.0,Satisfactory,93,PM10
2022-06-29,Darbhanga,1.0,Moderate,110,CO
2022-06-30,Darbhanga,1.0,Satisfactory,95,CO
2022-07-01,Darbhanga,1.0,Satisfactory,93,PM10
2022-07-02,Darbhanga,1.0,Satisfactory,87,CO
2022-07-03,Darbhanga,1.0,Satisfactory,70,PM10
2022-07-04,Darbhanga,1.0,Satisfactory,67,PM10
2022-07-05,Darbhanga,1.0,Satisfactory,100,PM10
2022-07-06,Darbhanga,1.0,Moderate,117,PM10
2022-07-07,Darbhanga,1.0,Moderate,107,PM10
2022-07-08,Darbhanga,1.0,Moderate,125,PM10
2022-07-09,Darbhanga,1.0,Moderate,103,PM10
2022-07-10,Darbhanga,1.0,Moderate,106,PM10
2022-07-11,Darbhanga,1.0,Satisfactory,97,PM10
2022-07-12,Darbhanga,1.0,Satisfactory,93,PM10
2022-07-13,Darbhanga,1.0,Moderate,102,PM10
2022-07-14,Darbhanga,1.0,Satisfactory,93,PM10
2022-07-15,Darbhanga,1.0,Satisfactory,90,PM10
2022-07-17,Darbhanga,1.0,Moderate,102,PM10
2022-07-19,Darbhanga,1.0,Poor,205,NO2
2022-07-21,Darbhanga,1.0,Good,34,PM2.5
2022-07-22,Darbhanga,1.0,Good,45,CO
2022-07-23,Darbhanga,1.0,Good,40,CO
2022-07-24,Darbhanga,1.0,Good,43,CO
2022-07-25,Darbhanga,1.0,Satisfactory,97,PM10
2022-07-26,Darbhanga,1.0,Satisfactory,100,PM10
2022-07-27,Darbhanga,1.0,Good,48,CO
2022-07-28,Darbhanga,1.0,Satisfactory,53,PM10
2022-07-29,Darbhanga,1.0,Satisfactory,53,CO
2022-07-30,Darbhanga,1.0,Satisfactory,58,PM10
2022-07-31,Darbhanga,1.0,Satisfactory,52,PM10
2022-08-01,Darbhanga,1.0,Satisfactory,54,CO
2022-08-02,Darbhanga,1.0,Good,41,O3
2022-08-03,Darbhanga,1.0,Satisfactory,51,PM10
2022-08-04,Darbhanga,1.0,Satisfactory,57,PM10
2022-08-06,Darbhanga,1.0,Satisfactory,81,PM10
2022-08-07,Darbhanga,1.0,Satisfactory,53,PM10
2022-08-08,Darbhanga,1.0,Satisfactory,91,PM10
2022-08-09,Darbhanga,1.0,Satisfactory,61,PM10
2022-08-10,Darbhanga,1.0,Satisfactory,53,PM10
2022-08-11,Darbhanga,1.0,Satisfactory,59,PM10
2022-08-12,Darbhanga,1.0,Satisfactory,53,PM10
2022-08-13,Darbhanga,1.0,Satisfactory,81,PM10
2022-08-14,Darbhanga,1.0,Satisfactory,75,PM10
2022-08-15,Darbhanga,1.0,Good,45,CO
2022-08-16,Darbhanga,1.0,Satisfactory,51,CO
2022-08-17,Darbhanga,1.0,Moderate,106,PM10
2022-08-19,Darbhanga,1.0,Satisfactory,95,PM10
2022-08-20,Darbhanga,1.0,Good,42,PM10
2022-08-21,Darbhanga,1.0,Satisfactory,65,PM10
2022-08-22,Darbhanga,1.0,Satisfactory,93,PM10
2022-08-23,Darbhanga,1.0,Moderate,101,PM10
2022-08-24,Darbhanga,1.0,Satisfactory,58,PM10
2022-08-25,Darbhanga,1.0,Satisfactory,59,PM10
2022-08-27,Darbhanga,1.0,Moderate,104,PM10
2022-08-28,Darbhanga,1.0,Good,38,PM10
2022-08-29,Darbhanga,1.0,Good,38,PM10
2022-08-30,Darbhanga,1.0,Satisfactory,91,PM10
2022-08-31,Darbhanga,1.0,Satisfactory,80,PM10
2022-09-01,Darbhanga,1.0,Satisfactory,58,PM10
2022-09-02,Darbhanga,1.0,Satisfactory,68,PM10
2022-09-03,Darbhanga,1.0,Good,46,CO
2022-09-04,Darbhanga,1.0,Good,47,O3
2022-09-05,Darbhanga,1.0,Satisfactory,54,CO
2022-09-06,Darbhanga,1.0,Satisfactory,70,PM10
2022-09-07,Darbhanga,1.0,Satisfactory,80,PM10
2022-09-08,Darbhanga,1.0,Satisfactory,74,PM10
2022-09-09,Darbhanga,1.0,Good,50,PM10
2022-09-10,Darbhanga,1.0,Satisfactory,73,PM10
2022-09-11,Darbhanga,1.0,Satisfactory,61,PM10
2022-09-12,Darbhanga,1.0,Good,37,CO
2022-09-13,Darbhanga,1.0,Good,26,O3
2022-09-14,Darbhanga,1.0,Good,26,PM10
2022-09-15,Darbhanga,1.0,Good,34,PM10
2022-09-16,Darbhanga,1.0,Good,29,O3
2022-09-20,Darbhanga,1.0,Good,42,PM10
2022-09-21,Darbhanga,1.0,Good,50,PM10
2022-09-22,Darbhanga,1.0,Satisfactory,80,PM2.5
2022-09-23,Darbhanga,1.0,Satisfactory,81,PM10
2022-09-24,Darbhanga,1.0,Satisfactory,88,PM10
2022-09-25,Darbhanga,1.0,Satisfactory,55,PM10
2022-09-26,Darbhanga,1.0,Satisfactory,79,PM10
2022-09-27,Darbhanga,1.0,Satisfactory,65,PM10
2022-09-28,Darbhanga,1.0,Satisfactory,79,PM10
2022-09-29,Darbhanga,1.0,Satisfactory,90,PM10
2022-09-30,Darbhanga,1.0,Satisfactory,88,PM10
2022-10-01,Darbhanga,1.0,Moderate,115,PM10
2022-10-02,Darbhanga,1.0,Moderate,117,PM10
2022-10-03,Darbhanga,1.0,Moderate,134,PM2.5
2022-10-04,Darbhanga,1.0,Satisfactory,55,CO
2022-10-05,Darbhanga,1.0,Satisfactory,51,CO
2022-10-06,Darbhanga,1.0,Good,50,PM10
2022-10-07,Darbhanga,1.0,Satisfactory,52,PM10
2022-10-09,Darbhanga,1.0,Poor,207,NO2
2022-10-10,Darbhanga,1.0,Moderate,159,NO2
2022-10-11,Darbhanga,1.0,Poor,222,NO2
2022-10-13,Darbhanga,1.0,Satisfactory,72,PM2.5
2022-10-14,Darbhanga,1.0,Moderate,170,PM2.5
2022-10-15,Darbhanga,1.0,Moderate,147,PM2.5
2022-10-16,Darbhanga,1.0,Moderate,166,PM2.5
2022-10-17,Darbhanga,1.0,Moderate,161,PM2.5
2022-10-18,Darbhanga,1.0,Moderate,186,PM2.5
2022-10-19,Darbhanga,1.0,Poor,230,PM2.5
2022-10-20,Darbhanga,1.0,Poor,294,PM2.5
2022-10-21,Darbhanga,1.0,Poor,292,PM2.5
2022-10-22,Darbhanga,1.0,Poor,259,PM2.5
2022-10-23,Darbhanga,1.0,Poor,251,PM2.5
2022-10-25,Darbhanga,1.0,Moderate,130,PM10
2022-10-26,Darbhanga,1.0,Very Poor,301,PM2.5
2022-10-27,Darbhanga,1.0,Poor,295,PM2.5
2022-10-28,Darbhanga,1.0,Poor,283,PM2.5
2022-10-29,Darbhanga,1.0,Very Poor,303,PM2.5
2022-10-30,Darbhanga,1.0,Poor,290,PM2.5
2022-10-31,Darbhanga,1.0,Poor,237,PM2.5
2022-11-01,Darbhanga,1.0,Moderate,198,PM2.5
2022-11-02,Darbhanga,1.0,Poor,209,PM2.5
2022-11-03,Darbhanga,1.0,Poor,263,PM2.5
2022-11-04,Darbhanga,1.0,Very Poor,316,PM2.5
2022-11-05,Darbhanga,1.0,Poor,289,PM2.5
2022-11-06,Darbhanga,1.0,Poor,253,PM2.5
2022-11-07,Darbhanga,1.0,Poor,206,PM10
2022-11-08,Darbhanga,1.0,Poor,263,PM2.5
2022-11-09,Darbhanga,1.0,Poor,286,PM2.5
2022-11-10,Darbhanga,1.0,Very Poor,348,PM2.5
2022-11-11,Darbhanga,1.0,Very Poor,388,PM2.5
2022-11-12,Darbhanga,1.0,Severe,404,PM2.5
2022-11-13,Darbhanga,1.0,Very Poor,316,PM2.5
2022-11-14,Darbhanga,1.0,Very Poor,360,PM2.5
2022-11-15,Darbhanga,1.0,Very Poor,339,PM2.5
2022-11-16,Darbhanga,1.0,Very Poor,378,PM2.5
2022-11-17,Darbhanga,1.0,Very Poor,374,PM2.5
2022-11-18,Darbhanga,1.0,Very Poor,332,PM10
2022-11-19,Darbhanga,1.0,Very Poor,394,PM10
2022-11-20,Darbhanga,1.0,Severe,411,PM10
2022-11-21,Darbhanga,1.0,Very Poor,376,PM10
2022-11-22,Darbhanga,1.0,Very Poor,374,PM10
2022-11-23,Darbhanga,1.0,Very Poor,382,PM10
2022-11-24,Darbhanga,1.0,Very Poor,398,PM10
2022-11-25,Darbhanga,1.0,Severe,415,PM10
2022-11-26,Darbhanga,1.0,Very Poor,397,PM10
2022-11-27,Darbhanga,1.0,Very Poor,376,PM2.5
2022-11-29,Darbhanga,1.0,Severe,427,PM10
2022-11-30,Darbhanga,1.0,Very Poor,342,PM10
2022-12-01,Darbhanga,1.0,Very Poor,360,PM10
2022-12-02,Darbhanga,1.0,Very Poor,360,PM10
2022-12-03,Darbhanga,1.0,Severe,407,PM10
2022-12-04,Darbhanga,1.0,Severe,422,PM10
2022-12-05,Darbhanga,1.0,Severe,411,PM10
2022-12-06,Darbhanga,1.0,Very Poor,386,PM10
2022-12-07,Darbhanga,1.0,Very Poor,396,PM10
2022-12-08,Darbhanga,1.0,Severe,412,PM10
2022-12-09,Darbhanga,1.0,Severe,403,PM10
2022-12-10,Darbhanga,1.0,Severe,426,PM10
2022-12-11,Darbhanga,1.0,Very Poor,395,PM2.5
2022-12-13,Darbhanga,1.0,Severe,473,PM2.5
2022-12-14,Darbhanga,1.0,Severe,446,PM2.5
2022-12-15,Darbhanga,1.0,Severe,437,PM10
2022-12-16,Darbhanga,1.0,Very Poor,362,PM2.5
2022-12-17,Darbhanga,1.0,Severe,407,PM2.5
2022-12-18,Darbhanga,1.0,Severe,446,PM2.5
2022-12-19,Darbhanga,1.0,Severe,407,PM2.5
2022-12-20,Darbhanga,1.0,Severe,431,PM2.5
2022-12-21,Darbhanga,1.0,Severe,433,PM2.5
2022-12-22,Darbhanga,1.0,Very Poor,385,PM2.5
2022-12-23,Darbhanga,1.0,Very Poor,375,PM2.5
2022-12-24,Darbhanga,1.0,Very Poor,372,PM2.5
2022-12-25,Darbhanga,1.0,Severe,424,PM2.5
2022-12-26,Darbhanga,1.0,Severe,414,PM2.5
2022-12-27,Darbhanga,1.0,Very Poor,370,PM2.5
2022-12-28,Darbhanga,1.0,Very Poor,375,PM2.5
2022-12-29,Darbhanga,1.0,Severe,419,PM2.5
2022-12-30,Darbhanga,1.0,Severe,449,PM2.5
2022-12-31,Darbhanga,1.0,Severe,470,PM2.5
2023-01-01,Darbhanga,1.0,Severe,473,PM2.5
2023-01-02,Darbhanga,1.0,Severe,407,PM2.5
2023-01-03,Darbhanga,1.0,Poor,280,PM2.5
2023-01-04,Darbhanga,1.0,Very Poor,327,PM2.5
2023-01-05,Darbhanga,1.0,Very Poor,331,PM2.5
2023-01-06,Darbhanga,1.0,Very Poor,354,PM2.5
2023-01-07,Darbhanga,1.0,Very Poor,358,PM2.5
2023-01-08,Darbhanga,1.0,Very Poor,305,PM10
2023-01-09,Darbhanga,1.0,Very Poor,342,PM10
2023-01-10,Darbhanga,1.0,Very Poor,387,PM2.5
2023-01-11,Darbhanga,1.0,Very Poor,343,PM2.5
2023-01-12,Darbhanga,1.0,Severe,409,PM2.5
2023-01-13,Darbhanga,1.0,Very Poor,354,PM2.5
2023-01-14,Darbhanga,1.0,Severe,436,PM2.5
